Location: Ajisawe
(8.4333°N, 4.3833°E)
Time: 11:14:27
(UTC+00:00)

Vanguard 2 Rocket - Pass Details

Date: 20 April 2021
Orbit: 553 x 3326 km, 32.9° (Epoch: 07 May)

Event Time Altitude Azimuth Distance (km) Brightness Sun altitude
Rises 12:13:29 0° 260° (W) 5,681 11.1 81.4°
Reaches altitude 10° 12:16:57 10° 265° (W) 4,999 10.9 80.7°
Maximum altitude 12:32:06 49° 336° (NNW) 3,705 11.1 77.1°
Drops below altitude 10° 12:51:34 10° 47° (NE) 6,209 11.2 72.4°
Sets 12:56:35 0° 53° (NE) 7,084 11.3 71.2°
